Погода Чапаево

Погода Чапаево : погода сейчас, прогноз погоды и архив. Всё, что Вы хотите узнать о погоде Чапаево!

Поиск расширенной информации на нашем сайте:

Другие новости

Новости СМИ2

Главная страница сайта

Новости сайта

03.07.2017

Напоминаем, что на нашем специализированном сайте Метеоцентр.Азия вы можете получить высокодетализированные автоматические прогнозы погоды по пунктам России, СНГ и мира в авиационном формате (включающие направление и скорость ветра, видимость, явления погоды, количество и форму облачности, нижнюю и верхнюю границу облачности).


Погода Чапаево - сегодня

Время (UTC), дата Ветер
(°,м/с) 
Видим.   Явления Облачность Т
(°С)
Тd
(°С)
f(%) Тe
(°С)
Pmin
(гПа)
dP
(гПа)
Po
(мм)
O2
(г/м3)
Тmin Tmax R s Состояние
почвы
12 20.10.17 350 (С) 20000 м    ясно 
+12.6 +0.2 42 +12  1016.1  0.1  761  293           
15 20.10.17 020 (С) н/о    ясно 
+9 -0.2 52 +9  1016.8  0.6  761  297    +13.2       
18 20.10.17 310 (СЗ) н/о    ясно 
+3 +0 81 +2  1017.9  1.1  762  304    +13.2       
21 20.10.17 320 (СЗ) н/о    ясно 
+1.2 -0.8 86 +2  1017.9  762  306           
00 21.10.17 320 (СЗ) н/о    ясно 
-1.1 -2.3 92 -1  1017.8  -0.1  762  309           
03 21.10.17 тихо ()   20000 м    3/0 средняя 
[Ac lent]
-1.2 -2.1 94 -1  1017.6  -0.2             
06 21.10.17 270 (З) 20000 м    6/0 средняя 
[Ac trans]
+4.4 +0.4 75 +4  1017.7  0.1  762  302  -1.2         
09 21.10.17 290 (З) 20000 м    6/6 600 м 
[Cu med, cong]
+9.2 -0.9 49 +7  1017  -0.7  761  297           
12 21.10.17 280 (З) 20000 м    6/6 600 м 
[Cu med, cong]
+8.8 -5.4 36 +8  1016.2  -0.8  761  298           
15 21.10.17 340 (С) н/о    4/0 средняя 
[Ac lent]
+5 -2.3 59 +5  1017  0.8  761  302    +9.3       
18 21.10.17 350 (С) н/о    ясно 
-0.1 -2.5 84 +1  1017.6  0.6  762  307    +9.3       
21 21.10.17 тихо ()   н/о    ясно 
-1.1 -2.7 89 -1  1017.4  -0.2  762  308           
00 22.10.17 тихо ()   н/о    ясно 
-1.2 +5.4 100 -1  1017.3  -0.1  762  307           
03 22.10.17 130 (ЮВ) н/о    10/0 средняя 
[Ac As]
+0.2 -0.7 94 +1  1017  -0.3  761  307           
06 22.10.17 110 (В) 20000 м    10/0 верхняя 
[Cu Sc|Cs]
+2.9 -1 75 +4  1016.8  -0.2  761  304  -1.2         
09 22.10.17 090 (В) 20000 м    10/0 верхняя 
[Cs]
+5.8 -1.2 61 +5  1015.4  -1.4  760  300           
12 22.10.17 140 (ЮВ) 20000 м    10/6 600 м средняя 
[Frnb|As trans]
+5.4 -4.3 50 +4  1014.4  -1  759  301           
15 22.10.17 070 (В) н/о  слаб. ливневой дождь  10/10 600 м кучево-дожд. 
[Cb cap]
+2.4 +0.5 87 +1  1014.2  -0.2  759  303    +5.9  0.3     
18 22.10.17 070 (В) н/о  {ливн. осадки}  10/10 600 м 
[Sc]
+2.6 -0.7 79 +2  1013.3  -0.9  759  303    +5.9  0.3     
21 22.10.17 010 (С) н/о    4/0 верхняя 
[Ci fib]
+1 -1.9 81 1012.8  -0.5  758  305           
00 23.10.17 020 (С) н/о    ясно 
-1.9 -4 86 -3  1013.3  0.5  759  308           
03 23.10.17 330 (СЗ) н/о    3/0 верхняя 
[Ci fib]
-4.4 -5.7 91 -6  1014.6  1.2        0.0     
06 23.10.17 320 (СЗ) 20000 м    4/0 средняя 
[Ac trans]
+1.7 -0.8 83 1016.1  1.6  761  305  -4.4    0.0     
09 23.10.17 340 (С) 20000 м    6/6 600 м 
[Cu hum]
+2.8 -0.8 77 +1  1017.7  1.6  762  304           
12 23.10.17 350 (С) 20000 м    4/4 600 м 
[Cu hum]
+4.7 -4.2 52 +4  1019  1.3  763  303           
Время (UTC), дата Ветер
(°,м/с) 
Видим.   Явления Облачность Т
(°С)
Тd
(°С)
f(%) Тe
(°С)
Pmin
(гПа)
dP
(гПа)
Po
(мм)
O2
(г/м3)
Тmin Tmax R s Состояние
почвы

Для получения пояснительной информации подведите курсор к названию столбца.

ПОГОДА Чапаево - архив

Всё, что Вы хотите узнать о погоде Чапаево - удобно и подробно!

Выберите нужную дату (начиная с 1 января 2015* года) и нажмите кнопку "Найти".
Будут отображены архивные сводки погоды по пункту Чапаево, начиная с указанной даты.


Отображать данные в формате CSV (для использования в таблицах Excel)


Внимание! Наш архив погоды предназначен исключительно для личного некоммерческого использования в познавательных целях. Если Вам необходимы официальные справки о состоянии погоды (для производственных, юридических, коммерческих и т.п. целей), обращайтесь в органы Росгидромета.

*Примечание: данная дата относится к архиву по метеостанциям СССР (Россия, СНГ, Балтия).
Архив по метеостанциям Зарубежной Европы и Азии (кроме Китая) хранится 10 дней, по другим регионам земного шара (Китай, Африка, Америка, Австралия, Океания) - 1 день.

Чапаево - район местоположения метеостанции


Название, широта, долгота, высота метеостанции:
Чапаево 50.2°ш. 51.2°д. 17 м над ур. моря [Казахстан]

Дополнительная информация

В oтличие oт бoльшинства пoгoдных сайтoв мы публикуем пoдрoбную метеoинфoрмацию в детальнoм прoфессиoнальнoм фoрмате.

Характеристики температуры и влажнoсти вoздуха измеряются на высoте 2 м в тени вдали oт зданий и деревьев.
Скoрoсть ветра измеряется на высoте 10 м (на урoвне рoста челoвека скoрoсть ветра ниже в 1.5-2 раза). Если метеoстанция нахoдится в гoрoде или в лесу, тo скoрoсть ветра занижена на 2-4 м/с пo сравнению с oткрытым местoм. Скoрoсть ветра над акватoриями крупных рек и oзёр, а также на вершинах хoлмoв на 2-5 м/с выше, чем в oбычных услoвиях.
Атмoсфернoе давление в разных тoчках местнoсти мoжет значительнo oтличаться oт давления на метеoстанции, в зависимoсти oт услoвий рельефа (при пoдъёме на 10 м давление пoнижается примернo на 1 мм рт.ст.).